DW8097 Weather Reports


Display with metric or nautical units.
time (UTC)temp
F
wind
direction
speed
MPH
gust
MPH
rain 1hr
in
rain 24hr
in
rain mn
in
humidity
%
barometer
mb
20260503210035 73 325 6.0 16.0 0.00 0.00 0.00 28 1002.6
20260503204512 73 355 6.0 14.0 0.00 0.00 0.00 28 1002.8
20260503203038 73 29 6.0 13.0 0.00 0.00 0.00 30 1003.0
20260503201538 73 355 5.0 11.0 0.00 0.00 0.00 30 1003.0
20260503200043 73 331 7.0 16.0 0.00 0.00 0.00 30 1003.1
20260503194534 72 30 7.0 15.0 0.00 0.00 0.00 29 1003.2
20260503193032 72 14 4.0 15.0 0.00 0.00 0.00 31 1003.3
20260503191534 72 350 8.0 16.0 0.00 0.00 0.00 30 1003.3
20260503190021 72 346 10.0 18.0 0.00 0.00 0.00 27 1003.4
20260503184521 71 351 10.0 16.0 0.00 0.00 0.00 31 1003.4
20260503183022 71 329 7.0 12.0 0.00 0.00 0.00 32 1003.5
20260503181514 70 338 6.0 13.0 0.00 0.00 0.00 34 1003.7
20260503180007 71 306 5.0 10.0 0.00 0.00 0.00 32 1003.8
20260503174502 69 350 5.0 14.0 0.00 0.00 0.00 36 1003.9
20260503173154 70 48 2.0 10.0 0.00 0.00 0.00 36 1004.1
20260503171554 68 24 6.0 8.0 0.00 0.00 0.00 35 1004.1
20260503081559 56 253 6.0 16.0 0.00 0.00 0.00 49 1005.2
20260503071543 54 221 4.0 7.0 0.00 0.00 0.00 49 1006.6
20260503054514 57 231 5.0 9.0 0.00 0.00 0.00 47 1007.6
20260503053006 57 242 3.0 7.0 0.00 0.00 0.00 48 1007.8
20260503051500 56 189 1.0 5.0 0.00 0.00 0.00 52 1008.0
20260503050058 57 227 3.0 7.0 0.00 0.00 0.00 51 1008.1
20260503044556 57 220 3.0 5.0 0.00 0.00 0.00 51 1008.2
20260503043048 57 232 3.0 5.0 0.00 0.00 0.00 51 1008.6
20260503041541 58 241 1.0 3.0 0.00 0.00 0.00 48 1008.8
20260503040037 59 260 1.0 4.0 0.00 0.00 0.00 46 1008.9
20260503034535 60 241 1.0 4.0 0.00 0.00 0.00 44 1009.0
20260503033029 60 274 2.0 4.0 0.00 0.00 0.00 42 1009.4
20260503031608 61 275 3.0 7.0 0.00 0.00 0.00 41 1009.8
20260503030054 61 250 4.0 8.0 0.00 0.00 0.00 40 1010.0
20260503024554 61 322 2.0 10.0 0.00 0.00 0.00 39 1010.0
20260503023055 61 280 3.0 10.0 0.00 0.00 0.00 39 1010.2
20260503021550 61 250 2.0 8.0 0.00 0.00 0.00 38 1010.2
20260503020058 61 335 2.0 5.0 0.00 0.00 0.00 39 1010.2
20260503014553 61 232 2.0 6.0 0.00 0.00 0.00 39 1009.9
20260503013046 60 229 3.0 6.0 0.00 0.00 0.00 41 1009.9
20260503011548 61 254 1.0 4.0 0.00 0.00 0.00 39 1009.8
20260503010040 62 257 2.0 4.0 0.00 0.00 0.00 36 1009.9
20260503004533 62 220 2.0 4.0 0.00 0.00 0.00 34 1010.0
20260503003030 63 254 2.0 5.0 0.00 0.00 0.00 34 1010.2
20260503001528 63 273 2.0 5.0 0.00 0.00 0.00 33 1010.4
20260503000031 63 248 2.0 6.0 0.00 0.00 0.00 34 1010.4
20260502234520 63 284 2.0 7.0 0.00 0.00 0.00 33 1010.5
20260502233018 63 258 3.0 7.0 0.00 0.00 0.00 32 1010.7
20260502231519 63 298 4.0 8.0 0.00 0.00 0.00 30 1010.8
20260502230011 64 275 4.0 8.0 0.00 0.00 0.00 30 1011.1
20260502224539 64 255 2.0 8.0 0.00 0.00 0.00 30 1011.3
20260502223037 64 259 5.0 15.0 0.00 0.00 0.00 30 1011.5
20260502221535 65 331 2.0 8.0 0.00 0.00 0.00 30 1011.7
20260502220034 65 292 6.0 14.0 0.00 0.00 0.00 29 1011.9
20260502214528 66 305 3.0 11.0 0.00 0.00 0.00 29 1012.0
20260502213025 65 313 6.0 12.0 0.00 0.00 0.00 28 1012.2
20260502211522 65 331 5.0 12.0 0.00 0.00 0.00 28 1012.5